Regional Weather Roundup
Issued by NWS

Home | Current Version | Previous Version | Text Only | Print | Product List | Glossary On
Versions: 1 2 3 4 5 6 7 8 9 10 11 12 13 14 15 16 17 18 19 20 21 22 23 24 25 26 27 28 29 30 31 32 33 34 35 36 37 38 39 40 41 42 43 44 45 46 47 48 49 50
000
ASUS45 KCYS 231910
RWRWY

WYOMING REGIONAL WEATHER ROUNDUP
NATIONAL WEATHER SERVICE CHEYENNE WY
100 PM MDT SAT AUG 23 2014

NOTE:  "FAIR" INDICATES FEW OR NO CLOUDS BELOW 12,000 FEET
WITH NO SIGNIFICANT WEATHER AND/OR OBSTRUCTIONS TO VISIBILITY.

WYZ001-232000-
YELLOWSTONE NATIONAL PARK

CITY           SKY/WX    TMP DP  RH WIND       PRES   REMARKS
LK YELLOWSTONE   N/A     44  41  89 VRB3      30.11S
W YELLOWSTONE  NOT AVBL

$$
WYZ002>013-054>058-071-098>099-232000-
NORTHERN WYOMING

CITY           SKY/WX    TMP DP  RH WIND       PRES   REMARKS
JACKSON        PTSUNNY   54  46  76 S7        30.07S
CODY           CLOUDY    59  54  82 N8        29.93S
GREYBULL       CLOUDY    61  54  77 N10       29.90S
WORLAND        CLOUDY    59  55  87 N13       29.91S
SHERIDAN       CLOUDY    61  56  83 N12       29.84F
BUFFALO        CLOUDY    61  56  83 N21G26    29.85F
GILLETTE       MOSUNNY   73  56  54 SW20      29.80F
HULETT         CLOUDY    66  61  82 MISG      29.84
NEWCASTLE      MOCLDY    70  55  60 S14       29.85

$$
WYZ014>020-022>026-101>103-232000-
CENTRAL WYOMING

CITY           SKY/WX    TMP DP  RH WIND       PRES   REMARKS
BIG PINEY      CLOUDY    56  43  61 NE9       30.09S
PINEDALE       LGT RAIN  46  41  81 NW12      30.11R
DUBOIS         CLOUDY    48  39  71 NW7G21    30.03S
LANDER         CLOUDY    63  47  55 E5        29.93S
RIVERTON       PTSUNNY   64  49  57 E6        29.94F
CASPER         CLOUDY    66  44  45 SW17G32   29.95F
DOUGLAS        MOSUNNY   72  46  39 W20G29    29.93R

$$
WYZ021-027>030-104>119-232000-
SOUTHERN WYOMING

CITY           SKY/WX    TMP DP  RH WIND       PRES   REMARKS
EVANSTON       PTSUNNY   55  36  48 NW17G23   30.13S
KEMMERER       MOCLDY    54  43  66 W14       30.12S
FORT BRIDGER   CLOUDY    53  44  71 W16G22    30.16S THUNDER
ROCK SPRINGS   CLOUDY    54  41  61 W21G29    30.10F
DIXON          RAIN      49  47  90 W17G31    30.17R
RAWLINS        CLOUDY    52  42  69 SW26G32   30.09S
SARATOGA       CLOUDY    54  45  71 MISG      30.11S
LARAMIE        CLOUDY    62  40  44 W7        30.04F
CHEYENNE       LGT RAIN  68  51  54 SW8       29.98S
TORRINGTON     MOSUNNY   82  48  30 W13       29.85F
PINE BLUFFS    FAIR      77  46  33 S7        29.93S

$$



USA.gov is the U.S. government's official web portal to all federal, state and local government web resources and services.